Regional Weather Roundup
Issued by NWS Raleigh/Durham, NC

Home | Current Version | Previous Version | Text Only | Print | Product List | Glossary On
Versions: 1 2 3 4 5 6 7 8 9 10 11 12 13 14 15 16 17 18 19 20 21 22 23 24 25 26 27 28 29 30 31 32 33 34 35 36 37 38 39 40 41 42 43 44 45 46 47 48 49 50
000
ASUS42 KRAH 300610
RWRRAH
NORTH CAROLINA WEATHER ROUNDUP
NATIONAL WEATHER SERVICE RALEIGH NC
200 AM EDT SUN AUG 30 2015

NOTE: "FAIR" INDICATES FEW OR NO CLOUDS BELOW 12,000 FEET WITH NO
SIGNIFICANT WEATHER AND/OR OBSTRUCTIONS TO VISIBILITY.

NCZ001-053-055-056-065-067-300700-
WESTERN NORTH CAROLINA

CITY           SKY/WX    TMP DP  RH WIND       PRES   REMARKS
ASHEVILLE      FAIR      66  61  84 CALM      30.22F
JEFFERSON      FAIR      63  55  75 CALM      30.25F
MORGANTON      FAIR      64  63  94 CALM      30.22S
HICKORY        FAIR      70  60  70 CALM      30.17F
RUTHERFORDTON  FAIR      67  62  85 CALM      30.17F
MOUNT AIRY     FAIR      67  63  87 CALM      30.19F
BOONE          FAIR      59  59  99 CALM      30.26F
$$

NCZ021-022-025-041-071-084-088-300700-
CENTRAL NORTH CAROLINA

CITY           SKY/WX    TMP DP  RH WIND       PRES   REMARKS
CHARLOTTE      CLOUDY    71  60  68 CALM      30.16S
GREENSBORO     CLOUDY    71  63  75 S3        30.15F
WINSTON-SALEM  FAIR      70  64  81 CALM      30.17F
RALEIGH-DURHAM MOCLDY    70  61  73 CALM      30.15F
FORT BRAGG     FAIR      68  63  83 CALM      30.13F
FAYETTEVILLE   FAIR      69  63  81 CALM      30.13F
BURLINGTON     FAIR      68  65  90 CALM      30.15F
LAURINBURG     FAIR      67  63  87 CALM      30.14F
$$

NCZ011-015-027-028-043-044-047-080-103-300700-
NORTHEASTERN NORTH CAROLINA

CITY           SKY/WX    TMP DP  RH WIND       PRES   REMARKS
ROCKY MT-WILSO FAIR      68  63  84 CALM      30.15F
GREENVILLE     FAIR      68  68 100 CALM      30.15F
WASHINGTON     FAIR      66  64  95 CALM      30.13F
ELIZABETH CITY MOCLDY    69  66  90 CALM      30.11F
MANTEO         FAIR      74  71  88 N6        30.10F
CAPE HATTERAS  FAIR      76  73  91 N6        30.09F
$$

NCZ078-087-090-091-093-098-101-300700-
SOUTHEASTERN NORTH CAROLINA

CITY           SKY/WX    TMP DP  RH WIND       PRES   REMARKS
LUMBERTON      FAIR      69  66  90 CALM      30.13F
GOLDSBORO      MOCLDY    70  64  83 CALM      30.13F
KINSTON        FAIR      67  65  94 CALM      30.14F
KENANSVILLE      N/A     67  66  94 CALM      30.14F
NEW BERN       FAIR      68  65  90 CALM      30.14F
CHERRY POINT   FAIR      73  67  81 N3        30.13F
BEAUFORT       FAIR      72  69  90 N3        30.11F
JACKSONVILLE   FAIR      69  65  86 CALM      30.12F
WILMINGTON     FAIR      72  65  78 CALM      30.12F
$$




USA.gov is the U.S. government's official web portal to all federal, state and local government web resources and services.